EW2349 Weather Reports


time (UTC)temp
F
wind
direction
speed
knots
gust
knots
rain 1hr
in
rain 24hr
in
rain mn
in
humidity
%
barometer
mb
20210723153107 65 329 4.3 8.7 0.00 0.14 0.00 64 1010.0
20210723151626 65 335 6.1 8.7 0.00 0.14 0.00 64 1009.9
20210723150024 64 336 6.1 10.4 0.00 0.14 0.00 66 1009.9
20210723144525 62 321 7.0 10.4 0.00 0.14 0.00 68 1009.7
20210723143108 61 325 5.2 8.7 0.00 0.14 0.00 71 1010.0
20210723141547 60 323 3.5 7.0 0.00 0.14 0.00 78 1010.1
20210723140017 59 333 2.6 4.3 0.00 0.14 0.00 79 1010.3
20210723134516 59 331 2.6 4.3 0.00 0.14 0.00 77 1010.4
20210723133021 60 355 3.5 4.3 0.00 0.14 0.00 75 1010.2
20210723131539 59 256 1.7 5.2 0.00 0.14 0.00 73 1010.6
20210723130005 59 259 2.6 4.3 0.00 0.14 0.00 74 1010.5
20210723124503 59 237 1.7 4.3 0.00 0.14 0.00 77 1010.3
20210723123221 59 306 0.9 4.3 0.00 0.14 0.00 78 1009.7
20210723121640 58 306 1.7 3.5 0.00 0.14 0.00 79 1008.9
20210723120115 57 289 2.6 5.2 0.00 0.14 0.00 80 1008.6
20210723114749 58 301 3.5 7.8 0.00 0.16 0.00 79 1008.6
20210723113126 58 286 1.7 2.6 0.00 0.16 0.00 78 1008.1
20210723111625 59 294 1.7 5.2 0.00 0.16 0.00 76 1008.2
20210723110118 60 315 2.6 5.2 0.00 0.16 0.00 75 1007.7
20210723104548 60 330 3.5 7.0 0.00 0.19 0.00 77 1007.5
20210723103116 61 348 2.6 5.2 0.00 0.19 0.00 80 1007.3
20210723101604 61 309 2.6 6.1 0.00 0.19 0.00 82 1007.2
20210723100119 61 284 2.6 7.0 0.00 0.19 0.00 87 1007.2
20210723094530 61 292 3.5 5.2 0.00 0.25 0.00 88 1007.2
20210723093036 61 282 2.6 6.1 0.00 0.25 0.00 88 1007.2
20210723091631 60 303 1.7 3.5 0.00 0.25 0.00 88 1007.1
20210723090021 60 290 2.6 3.5 0.00 0.25 0.00 86 1007.1
20210723084529 61 313 1.7 3.5 0.00 0.28 0.00 86 1007.0
20210723083029 62 258 0.9 1.7 0.00 0.28 0.00 84 1006.6
20210723081524 63 257 0.0 0.0 0.00 0.28 0.00 82 1006.7
20210723080037 63 259 0.0 4.3 0.00 0.28 0.00 82 1006.7
20210723074614 63 304 0.0 1.7 0.00 0.28 0.00 81 1006.8
20210723073007 63 316 0.0 0.0 0.00 0.28 0.00 81 1006.6
20210723071511 64 316 0.9 4.3 0.00 0.28 0.00 81 1006.4
20210723070151 65 246 0.0 0.9 0.00 0.28 0.00 79 1006.4
20210723064711 66 246 0.0 0.9 0.00 0.28 0.00 77 1006.4
20210723063116 65 273 0.0 2.6 0.00 0.28 0.00 76 1006.1
20210723061715 65 324 1.7 4.3 0.00 0.28 0.00 80 1006.0
20210723060103 65 213 2.6 5.2 0.00 0.28 0.00 79 1005.8
20210723054630 65 196 1.7 5.2 0.00 0.28 0.28 80 1005.8
20210723053157 65 195 3.5 6.1 0.00 0.28 0.28 79 1005.6
20210723051619 65 207 3.5 7.0 0.00 0.28 0.28 79 1005.4
20210723050113 66 211 0.0 5.2 0.00 0.28 0.28 80 1005.5
20210723044615 66 181 0.0 1.7 0.00 0.28 0.28 78 1005.6
20210723043146 67 151 2.6 6.1 0.00 0.28 0.28 77 1005.7
20210723041704 67 151 0.9 4.3 0.01 0.28 0.28 80 1005.9
20210723040122 67 134 3.5 7.0 0.02 0.28 0.28 79 1005.4
20210723034552 67 164 5.2 13.0 0.07 0.28 0.28 80 1004.9
20210723033046 67 163 9.6 20.0 0.09 0.28 0.28 79 1005.8
20210723031625 68 138 13.0 20.9 0.09 0.27 0.27 76 1006.2
20210723030047 67 155 7.8 14.8 0.12 0.26 0.26 81 1008.3
20210723023208 69 209 12.2 24.3 0.05 0.19 0.19 72 1008.2
20210723021558 71 214 20.0 30.4 0.04 0.18 0.18 61 1006.5
20210723020101 78 277 18.2 30.4 0.00 0.14 0.14 46 1005.2
20210723014640 86 228 3.5 6.1 0.00 0.14 0.14 44 1003.5
20210723013059 88 209 2.6 4.3 0.00 0.14 0.14 41 1003.0
20210723011533 90 206 0.9 4.3 0.00 0.14 0.14 38 1002.9
20210723010052 92 207 2.6 7.0 0.00 0.14 0.14 34 1002.6
20210723004532 95 198 1.7 6.1 0.00 0.14 0.14 32 1002.5
20210723003022 95 221 2.6 5.2 0.00 0.14 0.14 30 1002.9
20210723001548 96 209 2.6 5.2 0.00 0.14 0.14 30 1003.0
20210723000215 97 200 0.9 7.0 0.00 0.14 0.14 33 1003.0
20210722234538 97 216 2.6 7.8 0.00 0.14 0.14 28 1003.0
20210722233044 97 208 4.3 7.0 0.00 0.14 0.14 31 1003.3
20210722231521 97 217 2.6 7.0 0.00 0.14 0.14 33 1003.2
20210722230015 97 225 1.7 7.0 0.00 0.14 0.14 32 1003.5
20210722224517 97 219 4.3 9.6 0.00 0.14 0.14 32 1003.5
20210722223015 97 263 4.3 7.8 0.00 0.14 0.14 31 1003.3
20210722221542 98 211 3.5 7.8 0.00 0.14 0.14 31 1003.4
20210722220011 97 213 4.3 7.0 0.00 0.14 0.14 32 1003.5
20210722214509 96 215 3.5 7.8 0.00 0.14 0.14 32 1003.7
20210722213149 95 221 1.7 9.6 0.00 0.14 0.14 36 1003.9
20210722211648 94 214 4.3 10.4 0.00 0.14 0.14 38 1003.7
20210722210118 93 139 6.1 11.3 0.00 0.14 0.14 39 1004.1
20210722204658 94 165 2.6 14.8 0.00 0.14 0.14 39 1004.2
20210722203138 94 159 7.0 10.4 0.00 0.14 0.14 39 1004.3
20210722201602 93 140 3.5 12.2 0.00 0.14 0.14 40 1004.7
20210722200101 93 122 6.1 10.4 0.00 0.14 0.14 41 1004.7
20210722194644 91 96 1.7 7.0 0.00 0.14 0.14 42 1005.0
20210722191548 91 327 2.6 7.0 0.00 0.14 0.14 44 1005.2
20210722190128 91 329 4.3 7.0 0.00 0.14 0.14 44 1005.2
20210722184607 90 304 1.7 6.1 0.00 0.14 0.14 44 1005.5
20210722183046 90 302 0.0 5.2 0.00 0.14 0.14 45 1005.8
20210722181536 89 277 1.7 7.0 0.00 0.14 0.14 46 1005.9
20210722180022 89 268 3.5 8.7 0.00 0.14 0.14 47 1006.4
20210722174618 88 253 2.6 6.1 0.00 0.14 0.14 51 1006.2
20210722173052 87 292 1.7 3.5 0.00 0.14 0.14 53 1006.2
20210722171522 86 242 2.6 5.2 0.00 0.14 0.14 55 1006.4
20210722170009 85 310 2.6 4.3 0.00 0.14 0.14 54 1006.4
20210722164505 85 281 0.9 5.2 0.00 0.14 0.14 56 1006.6
20210722163023 84 219 2.6 4.3 0.00 0.14 0.14 58 1006.8
20210722161506 84 213 0.9 5.2 0.00 0.14 0.14 59 1006.7
20210722160241 84 224 1.7 6.1 0.00 0.14 0.14 59 1006.7
20210722154636 83 211 2.6 8.7 0.00 0.14 0.14 60 1006.6